Wind_Speed
48 46 44 43 42 41 41 40 39 38 36 35 33 30 28 27 26 25 24 23 21 20 19 19 19 19 19 19 19 19 20 20 20 20 20 19 18 18 17 16 16 15 15 15 15 15 16 16 16 15 15 15 15 15 15 15 14 15 15 15 15 15 15 16 16 16 16 16 16
48 47 45 43 42 42 41 40 39 38 36 34 32 30 28 27 26 25 24 23 21 20 20 19 19 19 19 20 20 20 20 20 20 20 20 19 18 17 17 16 16 15 15 15 16 16 16 16 16 15 15 15 15 15 14 14 14 15 15 15 15 15 16 16 16 16 16 16 17
49 47 46 44 43 42 41 40 39 38 36 34 32 30 28 27 26 25 24 23 21 21 20 20 20 20 20 20 20 20 20 20 20 20 19 19 18 17 17 16 16 15 15 16 16 16 16 16 16 15 15 15 15 15 15 14 15 15 15 15 16 16 16 16 17 17 17 17 17
49 48 47 45 44 43 42 40 39 38 36 34 32 30 29 28 27 25 24 23 22 21 21 21 20 20 20 20 20 20 20 20 20 20 19 19 18 17 16 16 15 15 16 16 16 17 17 16 16 15 15 15 15 15 15 15 15 15 16 16 16 16 17 17 17 17 17 18 18
49 48 47 45 44 42 41 40 39 37 36 34 32 31 29 28 27 26 25 24 23 22 21 21 20 20 20 19 19 20 20 20 20 20 19 19 18 17 16 16 16 16 16 16 17 17 17 16 16 15 15 15 15 15 15 15 15 16 16 16 16 17 17 18 18 18 18 19 19
49 48 47 45 44 42 41 40 38 37 35 34 32 31 30 29 28 27 26 24 23 22 21 21 20 20 19 19 19 20 20 20 20 20 19 18 17 16 16 16 16 16 16 17 17 17 17 16 16 15 15 15 15 15 15 15 16 16 17 17 17 17 18 18 19 19 19 19 20
48 47 46 45 44 42 41 40 38 36 35 34 33 32 31 30 28 27 26 24 23 23 22 21 20 20 19 19 19 20 20 20 20 20 19 18 17 16 16 16 16 17 17 17 17 17 17 16 16 15 15 15 15 15 15 15 16 17 17 18 18 18 18 19 19 20 20 20 20
47 47 46 45 44 42 41 40 38 37 36 35 33 32 31 30 28 27 25 24 24 23 22 21 20 20 19 19 19 19 20 20 20 19 18 17 17 16 16 16 17 17 17 18 17 17 16 16 15 15 15 15 15 16 16 16 16 17 18 18 19 19 19 20 20 21 21 21 21
48 47 46 45 44 42 41 40 38 37 36 35 33 32 31 29 28 27 26 25 24 23 22 21 20 19 19 19 19 19 19 19 19 19 18 17 17 16 16 17 17 17 18 18 17 17 16 16 15 15 15 16 16 16 16 16 17 18 18 19 20 20 20 21 21 21 22 22 22
47 47 46 45 44 43 41 40 38 37 36 35 33 32 30 29 28 27 26 25 24 23 22 21 20 19 19 19 19 19 19 19 19 18 18 17 17 17 17 17 18 18 18 18 17 16 16 15 15 15 16 16 16 16 16 17 17 18 19 20 20 21 22 22 22 22 22 22 23
46 46 46 45 44 43 41 40 39 38 36 35 33 32 31 29 28 27 26 25 25 24 22 21 20 19 19 19 18 18 19 19 18 18 18 17 17 17 17 17 18 18 18 17 16 16 15 15 15 16 16 16 16 16 17 17 18 19 20 20 21 22 23 23 23 23 23 23 23
44 45 45 44 44 43 42 41 39 38 37 35 34 32 31 30 29 27 27 26 25 24 23 21 20 19 19 18 18 18 18 18 18 18 17 17 17 17 17 18 18 18 18 17 16 15 15 15 15 16 16 16 16 17 17 18 18 19 20 21 22 23 24 24 24 23 23 23 23
43 44 44 44 44 43 42 41 40 38 37 36 34 33 32 30 29 28 27 27 26 24 23 21 20 19 18 18 18 18 18 18 18 17 17 17 17 17 18 18 18 18 17 16 16 15 15 15 16 16 16 16 17 17 18 18 19 20 21 22 23 24 24 25 24 24 23 23 23
42 43 43 44 44 43 43 42 40 39 38 36 35 33 32 31 29 29 28 27 26 24 23 21 20 19 18 18 17 17 17 18 17 17 17 17 18 18 18 18 18 18 17 16 16 15 15 16 16 16 16 17 17 18 18 19 20 21 22 23 24 25 25 25 25 24 23 23 23
41 42 42 43 43 43 43 42 41 40 38 37 35 33 32 31 30 29 28 27 26 25 23 22 20 19 18 18 17 17 17 17 17 17 17 18 18 18 18 18 18 18 17 16 16 15 16 16 16 16 16 17 18 18 19 20 21 22 23 24 25 25 26 25 24 24 23 22 22
40 41 41 42 43 43 43 43 42 40 39 37 35 34 33 32 31 30 28 27 26 25 23 22 20 19 18 18 17 17 17 17 17 18 18 18 18 18 19 18 18 17 16 16 16 16 16 16 16 16 17 18 18 19 20 21 22 23 24 25 25 26 25 25 24 23 22 21 21
40 40 41 42 42 43 43 43 42 40 39 37 35 34 33 32 31 30 29 28 27 25 24 22 21 19 18 18 17 17 17 17 18 18 18 18 18 19 19 18 18 17 16 16 16 16 15 15 16 16 17 18 19 20 21 22 24 25 25 26 26 25 24 24 23 22 21 21 20
40 40 40 41 42 42 43 42 41 40 38 37 35 34 33 32 31 30 29 28 27 26 24 22 21 20 19 18 18 17 17 17 17 18 18 18 18 19 19 18 17 17 16 16 16 16 15 16 16 17 18 19 20 21 22 24 25 25 26 26 25 24 23 22 21 20 20 20 20
40 40 40 41 41 41 41 41 40 39 38 36 35 33 33 32 31 30 29 28 27 26 24 23 21 20 19 18 18 17 17 17 17 17 18 18 18 19 18 18 17 17 16 16 16 16 16 16 17 17 18 20 21 22 24 25 25 26 26 25 24 23 22 21 20 20 19 19 19
40 40 40 40 40 40 40 40 39 38 36 35 34 33 32 31 30 30 29 28 27 25 24 23 22 20 19 18 18 17 17 17 17 17 18 18 18 19 18 18 17 17 16 16 16 16 16 16 17 18 19 21 22 23 25 26 26 26 25 24 23 21 21 20 19 19 19 19 20
40 40 39 39 38 38 38 38 37 36 35 34 33 33 32 31 30 30 29 27 26 25 24 23 22 21 19 18 18 17 17 17 17 18 18 18 19 19 18 18 17 17 16 16 16 16 16 17 18 19 20 22 23 25 25 26 26 25 24 22 21 20 20 20 19 19 20 20 20
40 39 38 37 37 36 36 36 36 35 34 34 33 32 32 31 30 29 28 27 26 25 24 23 22 21 19 18 17 17 17 17 17 18 18 19 19 19 18 18 17 17 16 16 16 16 17 18 19 20 21 23 24 25 26 25 24 23 22 21 21 20 20 20 20 20 20 20 21
39 38 37 36 35 35 35 35 35 35 34 34 33 32 32 31 30 29 28 27 26 26 25 24 22 21 19 18 17 17 17 17 18 18 19 19 19 19 18 18 17 17 16 16 16 17 17 19 20 21 22 24 25 25 25 24 23 22 21 21 21 21 21 21 21 21 21 21 21
39 38 37 36 35 35 35 35 35 35 35 34 33 33 32 31 30 29 28 28 27 26 25 24 22 21 19 18 17 17 18 18 19 19 19 19 19 19 18 18 17 16 16 16 16 17 18 19 21 22 23 24 25 24 23 22 21 21 21 21 21 22 22 21 21 21 21 21 21
39 38 37 36 36 36 36 36 36 35 35 34 33 32 32 31 30 30 29 28 27 26 25 24 22 21 19 19 18 18 18 19 19 19 20 20 19 19 18 17 17 16 16 16 17 18 19 20 22 23 24 24 23 22 21 20 20 20 20 21 22 22 22 22 22 22 22 22 22
39 38 37 36 36 36 36 36 36 35 35 34 33 33 32 32 31 30 29 28 27 26 25 24 22 21 20 19 19 19 19 19 20 20 20 20 19 19 18 17 16 16 16 16 17 18 19 21 22 23 23 22 20 19 19 19 19 20 20 21 21 22 22 22 22 22 22 22 22
39 38 37 37 36 36 36 36 36 35 35 34 34 33 33 32 31 30 29 29 28 27 25 24 23 21 20 20 20 20 20 20 20 20 20 19 19 18 17 16 16 16 16 17 18 19 20 21 22 22 20 18 17 17 18 19 19 20 20 20 21 21 22 22 23 23 23 22 22
39 38 37 36 36 36 36 36 36 36 35 35 34 33 33 32 31 31 30 29 28 27 26 25 23 22 21 20 20 20 20 20 20 20 20 19 19 18 17 16 16 16 16 17 18 19 21 21 21 20 18 17 17 17 18 18 19 19 20 20 21 21 22 22 23 23 23 23 23
38 37 37 36 36 36 36 36 36 36 36 35 34 33 33 32 32 31 30 29 28 28 27 25 23 22 21 21 20 20 20 20 20 19 19 19 18 18 17 16 16 16 17 18 19 20 21 21 20 19 18 17 17 17 18 18 19 19 20 20 21 21 22 22 23 23 24 24 25
38 37 36 36 35 35 35 36 36 36 35 35 34 34 33 33 32 31 30 30 29 28 26 25 23 22 21 21 20 20 20 20 20 19 19 19 18 17 16 16 16 17 17 18 19 20 21 21 20 18 17 16 16 17 17 18 18 19 20 20 21 21 22 22 23 23 24 25 26
38 37 36 35 34 34 34 35 35 35 35 35 35 35 34 33 32 31 31 30 29 27 26 24 23 22 21 21 20 20 20 20 19 19 19 18 17 16 16 16 16 17 18 19 20 20 20 20 19 18 17 16 16 16 17 18 18 19 20 21 21 21 22 22 23 23 24 25 26
38 37 35 34 33 33 33 34 34 35 36 36 35 35 34 33 32 31 30 29 28 27 26 24 23 22 21 21 20 20 20 19 19 19 18 18 17 16 16 16 17 18 18 19 20 20 19 19 18 17 16 15 15 16 17 18 19 19 20 21 22 22 22 22 23 23 24 25 26
37 36 35 34 33 32 32 33 34 35 36 36 36 35 34 33 32 31 30 29 28 27 26 25 23 22 22 21 21 20 19 19 19 18 18 17 16 16 16 17 17 18 19 19 19 19 18 17 17 16 15 15 15 16 17 18 19 20 21 22 22 22 22 22 23 23 24 25 26
37 36 34 33 32 32 32 33 34 35 36 36 36 35 34 33 32 32 31 30 28 27 25 24 23 22 21 21 20 19 19 19 18 18 17 16 16 16 16 17 18 18 19 19 18 18 17 16 16 15 15 15 15 16 17 19 20 21 22 22 22 21 21 21 22 23 24 25 26
37 36 34 33 32 32 32 33 35 36 36 36 36 35 34 33 33 32 31 29 28 26 25 24 23 22 21 20 19 19 18 18 18 17 16 16 16 16 17 17 18 18 18 18 17 17 16 16 15 15 15 15 15 17 18 19 21 21 22 21 21 20 21 21 22 23 24 25 25
37 35 34 32 32 32 33 34 35 36 37 37 36 35 35 34 32 31 30 28 27 26 25 24 23 22 21 20 19 19 18 18 17 16 16 15 16 16 17 18 18 18 18 17 16 16 16 16 15 15 15 15 16 17 19 20 21 21 21 21 20 20 20 21 22 23 24 24 23
36 34 33 32 32 32 33 34 35 36 37 37 36 35 34 33 32 31 29 28 27 26 25 24 23 22 21 20 19 19 18 18 17 16 15 15 16 16 17 18 18 18 17 16 15 15 15 15 15 15 15 16 17 18 19 20 20 21 20 20 19 19 20 21 22 22 22 22 21
36 34 32 32 32 32 33 34 36 36 37 36 36 35 34 33 32 31 29 28 27 26 25 24 23 22 20 19 18 18 17 17 16 15 15 16 16 17 17 17 17 17 16 15 15 15 15 16 15 15 15 16 17 18 19 20 20 20 19 19 19 19 20 20 21 21 20 19 19
35 33 32 31 31 32 33 34 36 36 36 36 35 34 33 32 31 30 29 27 26 25 25 24 22 21 19 18 18 17 17 16 15 15 15 16 16 17 17 17 17 16 16 15 15 15 15 15 15 15 15 16 17 18 19 19 19 19 18 18 18 19 19 19 19 18 18 17 17
34 32 31 31 31 32 33 34 35 35 35 35 34 33 33 32 30 29 27 26 25 25 24 22 21 19 18 18 17 17 16 16 15 15 15 16 16 16 17 16 16 16 15 15 15 15 15 15 15 15 15 16 17 17 18 18 17 17 17 18 18 19 19 18 17 17 16 17 16
33 32 31 30 31 31 33 34 34 34 34 33 33 32 31 30 29 28 27 26 25 24 22 21 19 18 18 17 17 16 16 15 15 15 15 15 16 16 16 16 16 16 15 15 15 15 15 15 15 15 16 16 16 16 16 16 16 16 17 18 18 18 17 16 16 16 16 16 16
Wind_Direction
230 231 232 233 233 232 232 231 230 230 230 230 231 231 231 231 231 232 234 236 238 241 242 243 243 242 241 240 239 238 237 236 237 237 237 238 240 241 243 246 248 251 254 256 258 260 261 263 265 268 271 275 279 283 287 290 293 296 298 300 302 303 304 304 304 304 304 303 302
229 230 231 232 232 232 231 230 229 229 229 229 229 229 229 229 230 231 233 235 237 238 239 239 239 239 238 237 237 236 236 236 236 236 237 238 239 241 243 245 248 251 254 257 258 259 260 262 264 267 271 275 279 283 287 290 293 296 298 299 301 302 303 303 303 303 303 302 301
229 229 230 230 230 230 229 228 228 228 228 228 228 227 227 228 229 231 233 234 235 235 236 236 237 238 237 236 236 235 235 235 236 236 236 237 238 240 242 245 249 251 254 256 258 259 260 261 264 267 271 275 280 284 287 291 293 295 297 299 300 301 301 302 302 303 302 301 300
228 229 229 229 229 229 228 228 229 229 228 228 227 225 225 226 227 229 231 232 232 233 234 236 237 237 236 235 235 235 235 235 235 236 236 237 238 240 243 246 249 252 254 256 257 258 259 261 263 267 271 276 281 285 288 291 293 295 297 298 299 300 301 301 302 302 301 301 300
228 228 229 229 229 229 229 229 229 229 228 227 226 224 224 225 226 227 228 229 230 232 234 235 236 236 235 235 234 234 234 235 235 235 236 237 239 241 244 247 250 252 254 255 256 257 258 260 263 267 272 277 281 285 288 291 293 295 296 297 298 299 300 301 301 301 301 300 299
228 228 229 229 229 229 229 229 229 229 228 227 225 224 224 224 225 226 227 228 230 232 234 234 234 234 234 234 234 234 234 234 234 235 236 237 239 242 245 247 250 252 253 254 255 256 257 260 264 268 273 277 281 284 287 290 292 293 295 296 297 298 299 300 301 301 300 299 298
228 228 228 228 228 228 228 228 228 227 227 226 225 225 225 225 226 227 228 229 231 232 232 233 233 233 233 233 233 233 234 234 234 235 236 238 240 243 245 248 250 251 252 253 253 255 257 260 265 269 274 278 281 284 287 289 291 293 294 295 296 298 299 300 300 300 299 298 297
229 228 228 228 228 228 227 227 226 226 225 225 225 225 226 226 227 228 229 229 230 231 232 233 233 233 233 233 233 233 234 234 235 236 237 238 241 243 246 248 250 251 251 252 252 254 257 261 265 270 275 278 281 285 287 290 292 293 294 296 297 298 298 299 299 299 299 297 296
228 228 228 228 227 227 227 227 226 226 225 225 225 225 225 226 227 228 228 229 230 231 232 232 232 232 233 233 233 234 234 235 235 236 238 239 241 244 246 248 250 250 250 251 252 254 258 262 267 271 275 279 282 285 288 290 292 293 295 296 297 298 298 298 299 298 298 297 296
227 226 226 226 226 226 226 226 226 226 225 225 225 225 224 225 226 227 227 228 229 230 231 231 232 232 232 233 233 234 235 235 236 237 238 240 242 244 247 248 249 249 249 250 252 255 259 264 268 272 275 278 282 285 288 290 292 293 294 296 297 297 298 298 298 298 297 296 295
226 225 225 225 225 225 225 225 225 225 225 224 224 223 223 224 224 225 226 227 228 229 229 230 231 232 233 234 234 234 235 236 236 237 239 241 243 245 247 248 249 249 249 250 252 256 260 265 269 272 275 279 282 285 288 290 291 293 294 295 296 297 298 298 298 298 297 296 295
226 225 225 224 224 224 224 224 224 224 223 223 223 222 222 223 223 224 224 225 226 227 229 230 231 232 233 234 234 235 235 236 237 238 239 242 244 245 247 247 248 248 249 250 253 258 262 266 269 273 276 279 282 285 288 290 291 293 294 295 296 297 298 299 299 299 298 297 295
226 225 224 224 224 223 223 223 223 223 223 222 222 221 221 222 222 222 223 224 225 227 228 229 231 232 233 234 234 235 235 236 237 238 240 242 244 246 246 247 248 248 249 252 255 259 263 267 270 273 277 280 283 285 288 290 292 293 294 296 297 298 298 299 300 299 298 297 295
225 225 224 223 223 222 222 222 223 223 222 222 221 221 220 220 221 221 222 224 225 226 227 228 230 231 233 233 234 235 235 236 238 239 241 243 244 246 247 247 248 249 250 253 256 260 264 267 271 274 278 281 284 286 288 290 292 293 295 296 297 298 299 300 300 300 298 296 294
225 224 223 222 222 221 221 222 222 222 222 221 220 220 219 219 220 221 222 223 224 225 226 227 228 230 232 232 234 235 236 237 238 240 241 243 245 246 247 247 248 250 252 255 258 261 264 268 272 276 279 282 284 287 289 291 292 294 295 297 298 299 300 300 300 299 297 295 294
224 223 222 221 221 220 220 221 221 221 221 221 220 219 218 219 219 220 221 222 223 224 225 226 227 229 230 231 233 234 236 237 239 240 242 244 245 246 247 248 249 251 253 256 259 262 265 268 272 276 279 283 285 287 289 291 292 294 295 297 298 299 300 300 299 297 296 294 293
223 222 221 220 219 219 219 219 220 220 220 220 219 218 218 218 219 220 221 222 222 223 224 225 227 228 228 230 232 234 236 238 240 242 243 245 246 247 248 249 250 252 255 257 260 262 266 269 273 277 280 283 286 288 290 291 293 294 296 297 298 299 299 298 297 296 294 293 292
222 221 219 219 218 218 218 218 219 219 219 218 218 217 217 218 218 219 220 221 222 223 224 225 226 227 228 229 232 234 237 239 242 244 245 247 248 248 249 250 251 254 256 258 260 263 267 271 274 278 281 283 286 288 290 291 293 295 296 298 298 298 297 297 296 294 294 293 293
221 219 218 217 217 216 216 217 217 218 218 217 217 217 217 217 218 219 220 221 222 223 224 224 225 226 228 229 232 236 239 241 244 246 247 248 248 249 250 251 252 254 256 258 261 264 268 272 275 278 281 284 286 288 290 292 294 295 297 297 298 297 297 296 295 295 295 295 295
220 219 217 216 215 215 215 215 216 216 216 216 216 216 216 217 218 219 220 220 221 222 223 224 224 225 227 229 233 236 240 243 245 247 247 248 248 249 250 251 252 254 255 258 261 265 269 273 276 279 282 284 286 288 290 292 294 296 297 297 297 297 297 297 297 297 296 296 296
220 218 217 215 214 214 214 214 214 215 215 214 214 215 216 216 217 218 219 220 221 221 222 223 224 225 226 229 233 237 241 244 246 247 247 247 248 249 250 251 252 253 255 258 262 266 270 274 277 280 282 285 287 289 291 293 295 296 297 298 298 299 299 299 299 298 298 297 296
220 218 216 214 213 213 212 212 213 213 213 213 213 214 215 216 216 217 218 219 219 220 221 222 223 225 227 230 234 238 242 244 246 246 247 247 248 248 249 250 251 252 255 259 263 268 272 275 278 281 283 285 287 290 292 294 295 297 298 299 300 301 300 300 299 299 298 297 296
220 218 216 214 212 212 211 211 211 211 211 211 212 213 214 215 215 216 217 217 218 218 219 221 223 225 228 231 235 239 242 244 245 246 246 246 247 248 248 249 250 252 256 260 264 269 273 276 279 281 283 286 288 291 293 295 297 299 300 301 302 301 300 300 299 298 298 297 296
220 218 216 213 211 210 210 210 210 210 210 210 210 211 212 213 214 214 215 216 217 217 218 220 222 224 227 231 234 238 241 243 244 245 245 246 246 247 247 248 250 253 257 261 266 270 274 277 279 282 284 287 290 293 295 297 299 300 301 301 301 301 300 300 299 299 298 297 296
221 218 215 213 211 209 209 209 209 209 209 209 209 210 211 212 213 214 214 215 216 216 217 219 221 223 226 230 234 237 241 243 245 245 245 245 245 245 246 247 250 253 258 263 267 272 275 278 281 284 287 290 293 296 298 299 299 300 300 300 300 300 300 300 300 299 298 297 295
221 219 216 213 211 209 208 208 208 208 207 208 208 209 210 211 212 213 214 214 215 216 217 218 220 223 225 229 233 237 241 244 245 245 244 244 244 244 245 247 250 254 259 264 269 272 276 279 283 287 291 294 296 297 297 296 296 297 297 298 298 299 299 299 299 298 296 295 295
222 220 217 214 212 210 209 207 207 207 207 207 207 208 209 210 211 212 213 214 215 215 216 218 220 222 225 229 234 238 242 244 245 245 244 243 243 243 244 247 251 256 261 265 270 273 277 281 285 288 291 293 292 291 291 292 293 294 295 296 297 297 297 297 296 295 295 294 294
223 221 218 215 213 211 209 207 206 206 206 206 207 207 208 209 210 211 212 213 214 215 216 218 220 222 226 230 234 239 242 244 244 243 242 242 242 242 244 247 252 257 262 267 271 275 278 282 286 288 289 288 287 287 288 290 292 293 294 295 295 295 295 294 294 294 293 293 293
224 222 219 216 214 211 209 207 206 205 205 205 206 206 208 209 210 211 212 212 213 214 215 217 219 222 226 230 235 240 243 244 243 242 240 240 240 242 245 249 254 259 264 268 272 277 281 284 286 287 287 286 286 287 288 290 292 293 293 293 294 294 294 293 293 292 292 292 292
224 223 220 217 214 211 209 207 206 204 204 204 205 206 207 208 209 210 211 212 213 214 216 218 220 223 226 231 236 240 242 242 241 240 239 238 240 242 246 251 256 261 266 270 274 278 282 284 285 286 286 286 287 288 289 290 291 291 292 292 292 292 292 292 292 291 290 290 290
225 223 221 218 215 212 209 207 205 204 203 203 204 205 206 207 209 210 211 212 214 215 217 218 220 223 228 232 236 239 241 241 239 238 237 238 240 243 248 253 258 263 267 272 276 280 282 284 285 286 287 288 289 289 289 289 289 289 289 289 289 289 289 289 289 288 288 289 289
226 224 222 219 215 212 209 206 204 203 202 203 203 204 206 207 208 210 211 213 214 215 216 217 220 224 228 232 236 239 240 239 237 236 236 238 240 245 250 255 260 265 270 274 278 281 282 283 285 286 288 289 289 288 287 287 287 286 286 287 287 287 287 287 287 287 287 288 290
227 225 222 218 215 211 208 205 203 202 201 202 202 203 205 206 208 209 211 212 213 214 215 217 220 224 228 232 236 238 238 237 236 235 235 237 241 246 251 257 262 267 272 276 279 281 282 284 285 287 288 288 287 286 285 284 284 285 286 288 289 289 289 288 287 287 288 289 291
227 225 222 218 214 210 206 203 202 201 200 201 201 203 204 205 206 208 209 211 213 214 216 218 221 225 230 234 237 237 237 235 234 233 234 238 242 248 253 259 264 270 274 278 280 281 282 284 285 287 287 287 285 284 283 283 285 287 289 291 291 291 290 289 288 288 289 291 293
226 224 221 217 213 209 205 202 200 199 199 199 200 201 203 205 206 208 209 210 212 213 215 218 222 226 230 234 236 236 234 232 231 232 234 239 244 250 256 261 267 272 276 278 280 280 282 284 286 287 287 286 285 284 285 287 290 292 293 293 292 290 288 288 288 289 290 293 295
226 223 219 215 211 207 203 200 199 198 198 198 199 200 202 204 206 208 209 210 211 212 214 217 221 225 228 232 233 233 232 230 230 232 235 240 246 252 259 264 270 274 277 278 279 280 281 283 286 288 288 287 287 288 290 293 294 295 295 293 291 289 287 286 287 290 293 296 299
225 222 219 214 210 206 202 199 197 197 197 198 198 199 201 203 205 207 208 209 210 211 214 217 221 225 229 231 232 232 230 230 230 233 237 243 249 255 261 267 272 275 277 277 278 279 281 284 287 289 291 291 292 293 295 296 296 295 294 293 291 290 288 288 290 293 297 300 301
224 221 218 213 209 204 201 198 197 196 196 197 198 199 201 202 204 206 207 208 209 211 214 218 222 226 230 232 232 230 229 228 230 234 239 246 252 259 265 270 273 275 276 277 278 280 283 285 288 291 293 294 295 296 296 296 295 294 293 293 292 290 290 292 295 298 301 303 304
223 220 216 212 207 203 199 197 196 196 196 196 197 198 200 202 204 205 206 208 210 212 215 219 224 228 230 230 228 226 226 227 231 236 243 249 256 262 268 272 274 275 276 277 279 281 284 287 290 292 293 295 296 296 296 295 294 293 293 293 293 293 294 297 301 304 306 307 308
222 219 215 211 206 202 198 196 195 195 195 196 197 198 200 202 204 205 206 208 210 213 217 221 225 227 227 226 224 223 225 228 233 239 246 253 260 265 270 272 274 275 276 278 280 283 286 288 291 293 295 296 297 297 296 294 293 292 292 292 293 295 298 303 306 308 311 312 314
221 218 214 209 204 200 197 195 194 194 195 196 197 199 200 202 203 204 205 207 210 213 217 221 223 224 223 221 221 222 225 230 236 242 249 256 262 267 270 272 273 275 276 279 282 285 287 290 292 294 296 297 298 297 294 292 291 290 289 291 294 298 303 308 311 312 314 317 320
Height
1471 1473 1475 1477 1479 1481 1483 1485 1487 1488 1490 1491 1493 1495 1496 1497 1498 1499 1500 1500 1501 1502 1502 1503 1503 1504 1504 1504 1505 1505 1505 1506 1507 1507 1507 1508 1508 1509 1509 1509 1509 1509 1510 1510 1510 1510 1510 1510 1510 1510 1510 1509 1509 1509 1509 1509 1509 1508 1508 1508 1507 1507 1507 1506 1506 1506 1505 1505 1504
1469 1471 1473 1475 1477 1479 1481 1483 1485 1486 1488 1490 1491 1493 1494 1495 1496 1497 1498 1499 1500 1500 1501 1501 1502 1502 1502 1503 1503 1504 1504 1505 1505 1506 1506 1506 1507 1507 1507 1508 1508 1508 1508 1508 1508 1509 1509 1509 1509 1508 1508 1508 1508 1508 1508 1508 1508 1507 1507 1506 1506 1506 1505 1505 1505 1504 1504 1503 1503
1466 1469 1471 1473 1475 1476 1478 1480 1482 1484 1486 1488 1490 1491 1493 1494 1495 1495 1496 1497 1498 1499 1499 1500 1500 1500 1501 1501 1502 1502 1503 1503 1504 1504 1505 1505 1505 1506 1506 1506 1507 1507 1507 1507 1507 1507 1507 1507 1507 1507 1507 1507 1507 1507 1507 1506 1506 1506 1505 1505 1505 1505 1504 1504 1503 1503 1502 1502 1501
1464 1466 1468 1470 1472 1474 1476 1478 1480 1482 1484 1486 1488 1490 1491 1492 1493 1494 1495 1495 1496 1497 1497 1498 1498 1499 1499 1500 1500 1501 1501 1502 1502 1503 1503 1504 1504 1505 1505 1505 1505 1505 1506 1506 1506 1506 1506 1506 1506 1506 1506 1506 1505 1505 1505 1505 1505 1505 1504 1504 1504 1503 1503 1502 1502 1501 1501 1500 1500
1461 1463 1465 1467 1470 1472 1474 1476 1478 1480 1482 1484 1486 1487 1489 1490 1491 1492 1493 1494 1494 1495 1496 1496 1497 1497 1498 1498 1499 1499 1500 1500 1501 1501 1502 1502 1503 1503 1504 1504 1504 1504 1505 1505 1505 1505 1505 1505 1505 1505 1505 1505 1504 1504 1504 1504 1504 1503 1503 1503 1502 1502 1501 1501 1500 1500 1500 1499 1498
1458 1460 1463 1465 1468 1470 1472 1475 1477 1479 1480 1482 1484 1485 1486 1487 1489 1490 1490 1491 1492 1494 1494 1495 1495 1495 1496 1496 1497 1498 1498 1499 1500 1500 1500 1501 1501 1502 1502 1502 1503 1503 1503 1503 1504 1504 1504 1504 1504 1503 1503 1503 1503 1503 1503 1503 1502 1502 1501 1501 1501 1500 1500 1500 1499 1499 1498 1497 1496
1456 1458 1461 1463 1466 1468 1470 1472 1475 1477 1479 1480 1482 1483 1484 1485 1486 1488 1489 1490 1491 1492 1492 1493 1493 1494 1494 1495 1495 1496 1497 1497 1498 1499 1499 1500 1500 1500 1501 1501 1501 1502 1502 1502 1502 1502 1502 1502 1502 1502 1502 1502 1502 1502 1502 1501 1501 1500 1500 1500 1499 1499 1499 1498 1497 1497 1496 1495 1495
1454 1456 1459 1461 1464 1466 1468 1470 1472 1475 1476 1478 1479 1481 1482 1484 1485 1486 1487 1488 1489 1490 1490 1491 1492 1492 1493 1493 1494 1495 1495 1496 1497 1497 1498 1498 1499 1499 1499 1500 1500 1500 1500 1501 1501 1501 1501 1501 1501 1501 1501 1500 1500 1500 1500 1500 1500 1499 1499 1498 1498 1497 1497 1496 1496 1495 1495 1494 1493
1451 1454 1456 1459 1461 1464 1466 1468 1470 1472 1474 1475 1477 1479 1480 1482 1483 1484 1485 1486 1487 1488 1489 1489 1490 1490 1491 1492 1492 1493 1494 1495 1495 1496 1496 1497 1497 1498 1498 1498 1499 1499 1499 1500 1500 1500 1500 1500 1500 1499 1499 1499 1499 1499 1499 1499 1498 1497 1497 1496 1496 1495 1495 1495 1494 1494 1493 1492 1491
1448 1451 1454 1456 1459 1461 1464 1466 1468 1470 1471 1473 1475 1477 1479 1480 1481 1482 1483 1485 1485 1486 1487 1487 1488 1489 1490 1490 1491 1492 1492 1493 1494 1494 1495 1495 1495 1496 1496 1497 1497 1497 1498 1498 1498 1498 1498 1498 1498 1498 1498 1498 1498 1498 1497 1497 1496 1496 1495 1495 1495 1494 1493 1493 1493 1492 1491 1490 1490
1445 1448 1451 1454 1456 1459 1461 1464 1465 1468 1470 1471 1473 1475 1476 1477 1479 1480 1481 1483 1484 1484 1485 1485 1486 1487 1488 1489 1489 1490 1491 1491 1492 1493 1493 1494 1494 1495 1495 1495 1496 1496 1496 1497 1497 1497 1497 1497 1497 1496 1496 1496 1496 1496 1496 1495 1495 1495 1494 1493 1493 1492 1492 1491 1491 1490 1490 1489 1488
1443 1446 1449 1452 1454 1457 1459 1461 1463 1465 1467 1469 1471 1472 1474 1475 1477 1478 1480 1480 1481 1482 1483 1484 1485 1485 1486 1487 1488 1489 1489 1490 1490 1491 1491 1492 1493 1493 1494 1494 1494 1495 1495 1495 1495 1495 1495 1495 1495 1495 1495 1495 1495 1495 1494 1494 1493 1493 1492 1492 1491 1490 1490 1489 1489 1488 1488 1487 1486
1441 1444 1447 1450 1452 1455 1456 1459 1460 1462 1465 1466 1468 1470 1472 1473 1475 1476 1477 1478 1479 1480 1481 1482 1483 1484 1485 1485 1486 1487 1488 1488 1489 1489 1490 1490 1491 1491 1492 1492 1493 1493 1493 1494 1494 1494 1494 1494 1494 1494 1494 1493 1493 1493 1493 1492 1492 1491 1490 1490 1489 1489 1488 1487 1487 1486 1486 1485 1484
1439 1441 1444 1447 1449 1452 1454 1456 1458 1460 1462 1464 1466 1468 1470 1471 1473 1474 1475 1476 1477 1478 1479 1480 1481 1482 1483 1484 1485 1485 1486 1487 1487 1488 1488 1489 1490 1490 1490 1491 1491 1492 1492 1492 1492 1492 1492 1492 1492 1492 1492 1492 1492 1491 1491 1490 1490 1489 1489 1488 1487 1487 1486 1485 1485 1485 1484 1483 1482
1437 1439 1441 1444 1446 1449 1451 1453 1455 1457 1459 1461 1463 1465 1467 1469 1470 1472 1473 1474 1475 1476 1477 1478 1479 1480 1481 1482 1483 1484 1484 1485 1485 1486 1487 1487 1488 1488 1489 1489 1490 1490 1490 1490 1491 1491 1491 1491 1491 1490 1490 1490 1490 1490 1489 1489 1488 1488 1487 1486 1485 1485 1484 1484 1483 1483 1482 1481 1480
1434 1436 1439 1441 1444 1446 1448 1450 1452 1454 1457 1459 1461 1463 1465 1467 1468 1470 1471 1472 1474 1475 1475 1476 1477 1479 1480 1480 1481 1482 1483 1483 1484 1484 1485 1485 1486 1487 1487 1488 1488 1489 1489 1489 1489 1489 1489 1489 1489 1489 1489 1489 1488 1488 1487 1487 1486 1486 1485 1485 1484 1483 1482 1482 1481 1481 1480 1480 1479
1431 1433 1435 1438 1440 1443 1445 1447 1449 1452 1454 1456 1459 1461 1463 1465 1466 1467 1469 1470 1471 1472 1473 1475 1476 1477 1478 1479 1480 1480 1481 1481 1482 1483 1483 1484 1485 1485 1486 1486 1487 1487 1487 1487 1487 1488 1488 1488 1488 1487 1487 1487 1486 1486 1485 1485 1485 1484 1483 1483 1482 1481 1481 1480 1480 1479 1478 1478 1477
1428 1430 1432 1435 1437 1440 1442 1444 1447 1449 1452 1454 1456 1459 1460 1462 1464 1465 1467 1468 1469 1470 1471 1473 1474 1475 1476 1477 1478 1478 1479 1480 1480 1481 1482 1482 1483 1484 1484 1485 1485 1485 1485 1486 1486 1486 1486 1486 1486 1486 1485 1485 1485 1484 1484 1483 1483 1482 1481 1481 1480 1480 1479 1478 1478 1477 1477 1476 1475
1425 1427 1429 1432 1434 1437 1439 1442 1445 1447 1450 1452 1455 1457 1459 1460 1462 1463 1465 1466 1467 1469 1470 1471 1472 1473 1474 1475 1476 1477 1477 1478 1479 1480 1480 1481 1481 1482 1483 1483 1483 1484 1484 1484 1484 1484 1484 1485 1484 1484 1484 1483 1483 1482 1482 1481 1481 1480 1480 1479 1478 1478 1477 1477 1476 1475 1475 1474 1474
1422 1424 1426 1429 1432 1435 1437 1440 1442 1445 1448 1450 1453 1455 1456 1458 1460 1461 1463 1464 1465 1467 1468 1469 1470 1471 1472 1473 1474 1475 1476 1476 1477 1478 1479 1479 1480 1480 1481 1481 1482 1482 1482 1482 1483 1483 1483 1483 1483 1482 1482 1481 1481 1480 1480 1480 1479 1478 1478 1477 1476 1476 1475 1475 1474 1474 1473 1473 1472
1420 1422 1424 1427 1430 1433 1435 1438 1441 1443 1446 1448 1450 1452 1454 1456 1458 1459 1461 1462 1464 1465 1466 1467 1468 1469 1470 1471 1472 1473 1474 1475 1476 1476 1477 1478 1478 1479 1479 1480 1480 1480 1480 1481 1481 1481 1481 1481 1481 1480 1480 1480 1479 1479 1478 1478 1477 1476 1476 1475 1475 1474 1474 1473 1473 1472 1471 1471 1470
1418 1420 1423 1426 1429 1432 1434 1437 1439 1442 1444 1446 1448 1450 1452 1454 1456 1457 1459 1461 1462 1463 1464 1465 1466 1468 1469 1470 1470 1471 1472 1473 1474 1475 1475 1476 1477 1477 1478 1478 1478 1479 1479 1479 1479 1479 1479 1479 1479 1479 1478 1478 1477 1477 1476 1476 1475 1475 1474 1473 1473 1472 1472 1471 1471 1470 1470 1469 1468
1416 1419 1422 1425 1428 1430 1433 1435 1437 1440 1442 1444 1446 1448 1450 1452 1454 1456 1458 1459 1460 1461 1462 1463 1465 1466 1467 1468 1469 1470 1471 1471 1472 1473 1474 1475 1475 1475 1476 1476 1477 1477 1477 1477 1478 1478 1477 1477 1477 1477 1476 1476 1475 1475 1475 1474 1473 1473 1472 1471 1471 1470 1470 1469 1469 1468 1468 1467 1466
1415 1417 1420 1423 1426 1428 1430 1433 1435 1437 1440 1442 1444 1446 1448 1450 1452 1454 1455 1457 1458 1459 1460 1462 1463 1464 1465 1466 1467 1468 1469 1470 1470 1471 1472 1473 1473 1474 1474 1475 1475 1475 1475 1476 1476 1476 1476 1475 1475 1475 1475 1474 1474 1473 1473 1472 1471 1471 1470 1470 1469 1468 1468 1467 1467 1466 1466 1465 1465
1413 1416 1418 1421 1423 1426 1428 1430 1432 1435 1437 1440 1442 1444 1446 1448 1450 1452 1453 1455 1456 1457 1459 1460 1461 1462 1464 1465 1465 1466 1467 1468 1469 1470 1470 1471 1471 1472 1473 1473 1473 1474 1474 1474 1474 1474 1474 1474 1473 1473 1473 1472 1472 1471 1470 1470 1470 1469 1469 1468 1467 1466 1466 1465 1465 1465 1464 1463 1463
1412 1414 1416 1419 1421 1423 1425 1428 1430 1432 1435 1437 1440 1442 1444 1446 1448 1450 1451 1453 1454 1455 1457 1458 1460 1460 1462 1463 1464 1465 1465 1466 1467 1468 1469 1469 1470 1470 1471 1471 1471 1472 1472 1472 1473 1473 1472 1472 1471 1471 1471 1470 1470 1469 1469 1468 1468 1468 1467 1466 1465 1465 1464 1464 1463 1463 1462 1461 1461
1410 1412 1414 1417 1419 1421 1423 1425 1428 1430 1433 1435 1438 1440 1442 1444 1446 1448 1449 1451 1452 1454 1455 1456 1458 1459 1460 1461 1462 1463 1464 1464 1465 1466 1467 1467 1468 1469 1469 1470 1470 1470 1470 1471 1471 1471 1470 1470 1470 1470 1469 1469 1469 1468 1468 1467 1467 1466 1465 1465 1464 1464 1463 1462 1461 1461 1460 1460 1459
1408 1410 1412 1415 1417 1419 1421 1424 1426 1428 1430 1433 1435 1438 1440 1442 1444 1445 1447 1449 1450 1452 1453 1455 1455 1457 1458 1459 1460 1461 1462 1463 1464 1464 1465 1466 1466 1467 1467 1468 1468 1469 1469 1469 1469 1469 1469 1469 1468 1468 1468 1468 1467 1467 1466 1466 1465 1465 1464 1463 1463 1462 1461 1460 1460 1459 1458 1458 1457
1407 1409 1411 1413 1415 1417 1420 1422 1424 1426 1428 1431 1434 1436 1438 1440 1442 1444 1445 1447 1448 1450 1451 1452 1454 1455 1456 1457 1458 1459 1460 1461 1462 1463 1463 1464 1465 1465 1465 1466 1466 1467 1467 1467 1467 1467 1467 1467 1467 1467 1466 1466 1466 1465 1465 1464 1464 1463 1462 1462 1461 1460 1460 1459 1458 1457 1457 1456 1455
1405 1407 1409 1411 1413 1415 1417 1420 1422 1424 1427 1429 1432 1434 1436 1438 1440 1441 1443 1445 1446 1448 1449 1450 1452 1453 1454 1455 1456 1458 1459 1459 1460 1461 1461 1462 1463 1463 1464 1465 1465 1465 1465 1465 1465 1465 1465 1465 1465 1465 1465 1465 1464 1464 1463 1462 1462 1461 1460 1460 1459 1459 1458 1457 1456 1455 1455 1454 1453
1403 1405 1407 1409 1411 1414 1415 1418 1420 1423 1425 1427 1430 1432 1434 1436 1438 1439 1441 1443 1445 1446 1448 1449 1450 1451 1452 1454 1455 1456 1457 1458 1458 1459 1460 1460 1461 1462 1462 1463 1463 1463 1464 1464 1464 1464 1463 1463 1463 1463 1463 1463 1462 1462 1461 1461 1460 1460 1459 1458 1457 1457 1456 1455 1455 1454 1453 1452 1451
1402 1403 1405 1408 1410 1412 1414 1416 1419 1421 1423 1425 1427 1430 1431 1434 1435 1438 1440 1441 1443 1445 1446 1447 1448 1450 1451 1452 1453 1454 1455 1456 1457 1457 1458 1459 1460 1460 1460 1461 1461 1461 1462 1462 1462 1462 1461 1461 1461 1461 1461 1461 1461 1460 1460 1459 1458 1457 1457 1456 1455 1455 1454 1453 1453 1452 1451 1450 1449
1400 1402 1404 1406 1408 1410 1413 1415 1417 1419 1421 1423 1425 1427 1430 1432 1434 1436 1438 1440 1441 1443 1444 1445 1446 1448 1449 1450 1451 1452 1453 1454 1455 1456 1456 1457 1458 1458 1459 1459 1460 1460 1460 1460 1460 1460 1460 1460 1460 1459 1459 1459 1459 1458 1458 1457 1456 1455 1455 1454 1453 1453 1452 1451 1450 1450 1449 1448 1447
1398 1400 1402 1404 1406 1409 1411 1413 1415 1417 1419 1421 1423 1426 1428 1430 1432 1434 1436 1438 1439 1441 1442 1444 1445 1446 1448 1449 1450 1451 1452 1453 1453 1454 1455 1455 1456 1457 1457 1457 1458 1458 1458 1458 1458 1458 1458 1458 1458 1458 1457 1457 1457 1456 1455 1455 1454 1454 1453 1452 1451 1451 1450 1450 1449 1448 1447 1446 1445
1396 1398 1400 1403 1405 1407 1409 1411 1413 1415 1417 1419 1421 1424 1426 1428 1430 1432 1434 1436 1438 1440 1441 1442 1444 1445 1446 1447 1448 1449 1450 1451 1452 1453 1453 1454 1454 1455 1455 1455 1456 1456 1456 1456 1456 1456 1456 1456 1456 1456 1456 1455 1455 1454 1454 1453 1452 1451 1451 1450 1449 1449 1448 1448 1447 1446 1445 1445 1444
1394 1396 1399 1401 1403 1405 1407 1409 1411 1413 1415 1417 1419 1422 1424 1427 1429 1431 1433 1435 1436 1438 1439 1441 1442 1443 1445 1445 1446 1447 1448 1449 1450 1451 1452 1452 1453 1453 1454 1454 1454 1454 1455 1455 1455 1455 1455 1454 1454 1454 1454 1453 1453 1452 1451 1451 1450 1450 1449 1448 1447 1447 1446 1446 1445 1444 1444 1443 1442
1393 1395 1397 1399 1401 1403 1405 1407 1409 1411 1413 1415 1417 1420 1422 1425 1427 1430 1431 1433 1435 1436 1438 1439 1440 1441 1443 1444 1445 1446 1447 1448 1449 1450 1450 1450 1451 1451 1452 1452 1452 1452 1453 1453 1453 1453 1453 1453 1452 1452 1452 1451 1451 1450 1450 1449 1448 1447 1447 1446 1445 1445 1445 1444 1443 1443 1442 1441 1440
1391 1394 1396 1398 1400 1401 1403 1405 1407 1409 1411 1413 1416 1419 1421 1424 1426 1428 1430 1431 1433 1434 1436 1437 1439 1440 1441 1442 1443 1445 1445 1446 1447 1448 1448 1449 1449 1450 1450 1450 1450 1450 1451 1451 1451 1451 1451 1451 1450 1450 1450 1449 1449 1448 1448 1447 1446 1445 1445 1444 1444 1443 1443 1442 1441 1441 1440 1440 1439
1390 1392 1394 1396 1398 1400 1402 1404 1405 1408 1410 1412 1415 1417 1420 1422 1424 1426 1428 1430 1431 1433 1434 1436 1437 1439 1440 1441 1442 1443 1444 1445 1445 1446 1447 1447 1448 1448 1448 1448 1449 1449 1449 1449 1449 1449 1449 1449 1449 1448 1448 1448 1447 1446 1446 1445 1444 1444 1443 1442 1442 1441 1441 1440 1440 1440 1439 1438 1438
1389 1391 1393 1395 1397 1399 1400 1402 1404 1406 1409 1411 1414 1416 1419 1421 1423 1425 1427 1429 1430 1432 1433 1435 1436 1437 1439 1440 1440 1441 1442 1443 1444 1445 1445 1446 1446 1446 1446 1446 1447 1447 1447 1448 1448 1447 1447 1447 1447 1447 1446 1446 1445 1445 1444 1443 1442 1442 1441 1440 1440 1440 1439 1439 1439 1438 1437 1436 1436
1388 1390 1392 1394 1396 1397 1399 1401 1404 1406 1408 1410 1413 1415 1417 1420 1422 1424 1426 1427 1429 1431 1432 1434 1435 1436 1437 1438 1439 1440 1441 1442 1442 1443 1444 1444 1444 1445 1445 1445 1445 1445 1445 1446 1446 1445 1445 1445 1445 1445 1445 1444 1443 1443 1442 1441 1441 1440 1440 1439 1439 1438 1438 1437 1437 1436 1436 1435 1435